EN

Hourly Weather Gogolevo

Today, 18 May, Tuesday

Time Temperature Precipitation Wind Pressure Humidity
00:00 +17°C° 0 mm 3 mps 741 mmHg 96%
01:00 +17°C° 0 mm 3 mps 741 mmHg 96%
02:00 +17°C° 0 mm 3 mps 741 mmHg 97%
03:00 +17°C° 0 mm 3 mps 740 mmHg 96%
04:00 +17°C° 0 mm 3 mps 740 mmHg 95%
05:00 +17°C° 0 mm 3 mps 740 mmHg 95%
06:00 +19°C° 0 mm 4 mps 740 mmHg 89%
07:00 +20°C° 0 mm 4 mps 740 mmHg 84%
08:00 +22°C° 0 mm 4 mps 740 mmHg 78%
09:00 +25°C° 0 mm 4 mps 740 mmHg 68%
10:00 +26°C° 0 mm 5 mps 740 mmHg 58%
11:00 +28°C° 0 mm 5 mps 740 mmHg 48%
12:00 +29°C° 0 mm 5 mps 740 mmHg 45%
13:00 +29°C° 0 mm 5 mps 740 mmHg 42%
14:00 +30°C° 0 mm 5 mps 740 mmHg 38%
15:00 +29°C° 0 mm 5 mps 740 mmHg 40%
16:00 +29°C° 0 mm 5 mps 740 mmHg 42%
17:00 +28°C° 0 mm 5 mps 740 mmHg 44%
18:00 +25°C° 0 mm 4 mps 740 mmHg 50%
19:00 +22°C° 0 mm 4 mps 740 mmHg 56%
20:00 +20°C° 0 mm 3 mps 740 mmHg 62%
21:00 +20°C° 0 mm 3 mps 740 mmHg 64%
22:00 +19°C° 0 mm 4 mps 739 mmHg 65%
23:00 +19°C° 0 mm 4 mps 739 mmHg 66%

Tomorrow, 19 May, Wednesday

Time Temperature Precipitation Wind Pressure Humidity
00:00 +18°C° 0 mm 4 mps 739 mmHg 70%
01:00 +18°C° 0 mm 4 mps 739 mmHg 74%
02:00 +17°C° 0 mm 3 mps 739 mmHg 79%
03:00 +17°C° 0 mm 3 mps 739 mmHg 81%
04:00 +17°C° 0 mm 3 mps 739 mmHg 83%
05:00 +17°C° 0 mm 3 mps 739 mmHg 85%
06:00 +19°C° 0 mm 4 mps 739 mmHg 79%
07:00 +20°C° 0 mm 4 mps 739 mmHg 73%
08:00 +22°C° 0 mm 5 mps 739 mmHg 68%
09:00 +22°C° 0.4 mm 5 mps 739 mmHg 68%
10:00 +22°C° 0.4 mm 6 mps 739 mmHg 67%
11:00 +23°C° 0.4 mm 6 mps 739 mmHg 67%
12:00 +23°C° 0.3 mm 6 mps 739 mmHg 60%
13:00 +24°C° 0.3 mm 6 mps 739 mmHg 53%
14:00 +26°C° 0.3 mm 6 mps 740 mmHg 47%
15:00 +25°C° 0 mm 5 mps 740 mmHg 50%
16:00 +25°C° 0 mm 4 mps 740 mmHg 53%
17:00 +23°C° 0 mm 4 mps 740 mmHg 57%
18:00 +21°C° 0.1 mm 3 mps 740 mmHg 66%
19:00 +19°C° 0.1 mm 2 mps 740 mmHg 75%
20:00 +17°C° 0.1 mm 2 mps 740 mmHg 84%
21:00 +18°C° 0 mm 1 mps 740 mmHg 87%
22:00 +16°C° 0 mm 1 mps 740 mmHg 89%
23:00 +15°C° 0 mm 1 mps 740 mmHg 92%

Day after tomorrow, 20 May, Thursday

Time Temperature Precipitation Wind Pressure Humidity
00:00 +15°C° 0 mm 1 mps 739 mmHg 93%
01:00 +14°C° 0 mm 1 mps 739 mmHg 94%
02:00 +14°C° 0 mm 1 mps 739 mmHg 95%
03:00 +15°C° 0.2 mm 1 mps 739 mmHg 95%
04:00 +15°C° 0.2 mm 2 mps 739 mmHg 95%
05:00 +15°C° 0.2 mm 2 mps 739 mmHg 95%
06:00 +17°C° 0 mm 2 mps 739 mmHg 89%
07:00 +19°C° 0 mm 3 mps 738 mmHg 83%
08:00 +20°C° 0 mm 3 mps 738 mmHg 76%
09:00 +21°C° 0.3 mm 4 mps 738 mmHg 73%
10:00 +22°C° 0.3 mm 4 mps 738 mmHg 69%
11:00 +23°C° 0.3 mm 5 mps 737 mmHg 65%
12:00 +22°C° 1 mm 5 mps 737 mmHg 68%
13:00 +21°C° 1 mm 5 mps 737 mmHg 72%
14:00 +20°C° 1 mm 6 mps 737 mmHg 75%
15:00 +20°C° 0.1 mm 5 mps 736 mmHg 71%
16:00 +20°C° 0.1 mm 5 mps 736 mmHg 67%
17:00 +20°C° 0.1 mm 5 mps 736 mmHg 63%
18:00 +17°C° 0.1 mm 5 mps 736 mmHg 69%
19:00 +17°C° 0.1 mm 4 mps 736 mmHg 74%
20:00 +14°C° 0.1 mm 4 mps 736 mmHg 80%
21:00 +14°C° 0.2 mm 4 mps 736 mmHg 83%
22:00 +13°C° 0.2 mm 4 mps 735 mmHg 86%
23:00 +12°C° 0.2 mm 4 mps 735 mmHg 90%

21 May, Friday

Time Temperature Precipitation Wind Pressure Humidity
00:00 +12°C° 0.2 mm 4 mps 735 mmHg 91%
01:00 +11°C° 0.2 mm 4 mps 735 mmHg 93%
02:00 +11°C° 0.2 mm 4 mps 736 mmHg 95%
03:00 +10°C° 0 mm 4 mps 736 mmHg 95%
04:00 +10°C° 0 mm 4 mps 737 mmHg 94%
05:00 +8°C° 0 mm 5 mps 738 mmHg 94%
06:00 +8°C° 0 mm 4 mps 739 mmHg 92%
07:00 +8°C° 0 mm 4 mps 739 mmHg 91%
08:00 +10°C° 0 mm 4 mps 740 mmHg 89%
09:00 +11°C° 0 mm 4 mps 741 mmHg 77%
10:00 +13°C° 0 mm 4 mps 741 mmHg 65%
11:00 +14°C° 0 mm 5 mps 742 mmHg 53%
12:00 +15°C° 0 mm 5 mps 742 mmHg 48%
13:00 +16°C° 0 mm 5 mps 743 mmHg 42%
14:00 +17°C° 0 mm 5 mps 743 mmHg 37%
15:00 +18°C° 0 mm 4 mps 743 mmHg 39%
16:00 +18°C° 0 mm 4 mps 743 mmHg 41%
17:00 +17°C° 0 mm 4 mps 743 mmHg 43%
18:00 +16°C° 0 mm 3 mps 744 mmHg 51%
19:00 +13°C° 0 mm 3 mps 744 mmHg 59%
20:00 +12°C° 0 mm 2 mps 745 mmHg 67%
21:00 +10°C° 0 mm 2 mps 745 mmHg 70%
22:00 +10°C° 0 mm 2 mps 745 mmHg 73%
23:00 +9°C° 0 mm 2 mps 745 mmHg 76%

22 May, Saturday

Time Temperature Precipitation Wind Pressure Humidity
00:00 +8°C° 0 mm 2 mps 746 mmHg 79%
01:00 +7°C° 0 mm 2 mps 746 mmHg 82%
02:00 +6°C° 0 mm 2 mps 746 mmHg 86%
03:00 +7°C° 0 mm 2 mps 746 mmHg 83%
04:00 +7°C° 0 mm 2 mps 747 mmHg 80%
05:00 +9°C° 0 mm 1 mps 747 mmHg 78%
06:00 +10°C° 0 mm 2 mps 747 mmHg 69%
07:00 +13°C° 0 mm 2 mps 747 mmHg 60%
08:00 +15°C° 0 mm 2 mps 747 mmHg 51%
09:00 +16°C° 0 mm 2 mps 747 mmHg 47%
10:00 +17°C° 0 mm 2 mps 747 mmHg 42%
11:00 +18°C° 0 mm 2 mps 747 mmHg 38%
12:00 +19°C° 0 mm 2 mps 747 mmHg 37%
13:00 +19°C° 0 mm 3 mps 747 mmHg 36%
14:00 +20°C° 0 mm 3 mps 747 mmHg 35%
15:00 +20°C° 0 mm 3 mps 747 mmHg 38%
16:00 +19°C° 0 mm 2 mps 746 mmHg 41%
17:00 +19°C° 0 mm 2 mps 746 mmHg 44%
18:00 +17°C° 0 mm 2 mps 746 mmHg 52%
19:00 +15°C° 0 mm 2 mps 746 mmHg 60%
20:00 +13°C° 0 mm 2 mps 746 mmHg 68%
21:00 +12°C° 0 mm 2 mps 746 mmHg 72%
22:00 +10°C° 0 mm 2 mps 746 mmHg 75%
23:00 +9°C° 0 mm 2 mps 746 mmHg 79%

23 May, Sunday

Time Temperature Precipitation Wind Pressure Humidity
00:00 +9°C° 0 mm 2 mps 746 mmHg 81%
01:00 +9°C° 0 mm 2 mps 746 mmHg 83%
02:00 +8°C° 0 mm 2 mps 746 mmHg 85%
03:00 +9°C° 0 mm 2 mps 745 mmHg 82%
04:00 +10°C° 0 mm 3 mps 745 mmHg 80%
05:00 +10°C° 0 mm 3 mps 745 mmHg 77%
06:00 +12°C° 0 mm 4 mps 744 mmHg 73%
07:00 +14°C° 0 mm 4 mps 744 mmHg 69%
08:00 +16°C° 0 mm 5 mps 744 mmHg 65%
09:00 +17°C° 0 mm 5 mps 743 mmHg 60%
10:00 +17°C° 0 mm 5 mps 742 mmHg 55%
11:00 +19°C° 0 mm 5 mps 742 mmHg 50%
12:00 +20°C° 0 mm 5 mps 741 mmHg 50%
13:00 +20°C° 0 mm 5 mps 741 mmHg 50%
14:00 +20°C° 0 mm 5 mps 740 mmHg 50%
15:00 +19°C° 0.5 mm 5 mps 740 mmHg 59%
16:00 +18°C° 0.5 mm 4 mps 739 mmHg 68%
17:00 +17°C° 0.5 mm 4 mps 739 mmHg 76%
18:00 +14°C° 2.8 mm 3 mps 739 mmHg 82%
19:00 +13°C° 2.8 mm 3 mps 739 mmHg 88%
20:00 +11°C° 2.8 mm 3 mps 740 mmHg 94%
21:00 +11°C° 0.2 mm 3 mps 740 mmHg 94%
22:00 +11°C° 0.2 mm 3 mps 741 mmHg 94%
23:00 +11°C° 0.2 mm 3 mps 741 mmHg 93%
Show more